Regional Weather Roundup
Issued by NWS Mt. Holly, NJ

Home | Current Version | Previous Version | Text Only | Print | Product List | Glossary On
Versions: 1 2 3 4 5 6 7 8 9 10 11 12 13 14 15 16 17 18 19 20 21 22 23 24 25 26 27
000
ASUS41 KPHI 241510
RWRPHI

REGIONAL WEATHER ROUNDUP
NATIONAL WEATHER SERVICE MOUNT HOLLY NJ
1100 AM EDT FRI OCT 24 2014

NOTE:  "FAIR" INDICATES FEW OR NO CLOUDS BELOW 12,000 FEET WITH NO
SIGNIFICANT WEATHER AND/OR OBSTRUCTIONS TO VISIBILITY.

 * = STATION DOES NOT REPORT PRECIPITATION (E.G. RAIN, SNOW, ETC.)
        OR FOG.

NJZ015>026-241600-
SOUTHERN NEW JERSEY

CITY           SKY/WX    TMP DP  RH WIND       PRES   REMARKS
POMONA         CLOUDY    57  45  64 NW17G30   29.86S
RIO GRANDE*    CLOUDY    59  46  63 NW9G16    29.89S
MILLVILLE      MOSUNNY   61  46  57 N15       29.87F
WRIGHTSTOWN    PTSUNNY   58  44  61 NW16G24   29.84R
MOUNT HOLLY    CLOUDY    58  43  57 N12G22    29.86S
TRENTON        PTSUNNY   58  42  55 N8        29.86R

$$
NJZ001>014-241600-
NORTHERN NEW JERSEY

CITY           SKY/WX    TMP DP  RH WIND       PRES   REMARKS
SUSSEX         CLOUDY    58  44  60 N9        29.85S
ANDOVER*         N/A     54  43  66 N10G23    29.85S
MORRISTOWN     CLOUDY    55  45  67 N9G23     29.85R
NEWARK         PTSUNNY   57  43  59 NW15G23   29.83S
TETERBORO      MOSUNNY   56  42  59 NW14      29.81F
CALDWELL       CLOUDY    55  41  59 NW8       29.84S
SOMERVILLE     CLOUDY    58  42  55 N8        29.84S
ALLAIRE*       CLOUDY    55  41  58 NW18      29.83S
TOMS RIVER*    CLOUDY    55  43  62 N8G17     29.85S

$$
PAZ043-044-047-054-055-060>062-066>071-241600-
EASTERN PENNSYLVANIA

CITY           SKY/WX    TMP DP  RH WIND       PRES   REMARKS
PHILADELPHIA   MOSUNNY   62  44  51 NW12      29.88F
NORTH PHILA    MOSUNNY   61  42  49 N20       29.88S
BLUE BELL      SUNNY     63  45  51 NW10G20   29.86F
DOYLESTOWN     MOSUNNY   58  44  60 N12G21    29.86S
QUAKERTOWN*    SUNNY     59  45  58 N13       29.88F
POTTSTOWN      SUNNY     60  45  57 NW12G20   29.89S
LANCASTER      MOSUNNY   61  44  53 NW20G25   29.91F
COATESVILLE    SUNNY     59  45  58 NW20G29   29.90F
READING        MOSUNNY   62  43  49 NW20G30   29.89F
ALLENTOWN      SUNNY     60  43  53 NW10      29.88S
MOUNT POCONO   MOSUNNY   51  41  68 NW17G29   29.86R
HAZLETON       CLOUDY    55  41  58 NW13G22   29.92S
WILKES BARRE   MOSUNNY   55  43  63 NW13G18   29.90F

$$
DEZALL-MDZ008-012-015-019-020-241600-
DELAWARE AND EASTERN MARYLAND

CITY           SKY/WX    TMP DP  RH WIND       PRES   REMARKS
WILMINGTON     SUNNY     63  45  51 N17G28    29.90F
DOVER          MOSUNNY   61  47  59 NW18G25   29.87S
GEORGETOWN     PTSUNNY   61  45  55 NW9G21    29.91S
EASTON         MOSUNNY   63  48  59 NW16G23   29.97S
PATUXENT       PTSUNNY   60  44  55 NW18G24   29.95F
OCEAN CITY     SUNNY     62  47  57 NW14G25   29.90S
WALLOPS ISLAND PTSUNNY   61  47  59 N14       29.92F
CAMBRIDGE      MOSUNNY   61  45  55 NW15G26   29.93S
SALISBURY      MOSUNNY   63  46  54 NW14G25   29.91S

$$
PAZ001-021-NYZ056-072-MDZ011-DCZ001-241600-
OTHER NEARBY LOCATIONS

CITY           SKY/WX    TMP DP  RH WIND       PRES   REMARKS
HARRISBURG     SUNNY     61  40  45 NW14      29.94F
STATE COLLEGE  SUNNY     54  37  54 W8        30.00F
WILLIAMSPORT   SUNNY     61  37  41 W14       29.93F
BINGHAMTON     SUNNY     52  41  66 NW14G23   29.90F
NEW YORK CITY  PTSUNNY   56  42  59 VRB5      29.84F
BALTIMORE      NOT AVBL
WASHINGTON DC  PTSUNNY   63  42  46 NW14G25   29.99S

$$



USA.gov is the U.S. government's official web portal to all federal, state and local government web resources and services.